FW3894 Weather Reports


time (UTC)temp
C
wind
direction
speed
KPH
gust
KPH
rain 1hr
cm
rain 24hr
cm
rain mn
cm
humidity
%
barometer
mb
20260505082008 14 0 1.6 11.3 0.00 0.00 0.00 85 1009.6
20260505081532 15 246 1.6 11.3 0.00 0.00 0.00 85 1009.7
20260505081012 14 273 3.2 12.9 0.00 0.00 0.00 85 1009.6
20260505080510 14 288 3.2 12.9 0.00 0.00 0.00 86 1009.7
20260505080033 14 259 4.8 12.9 0.00 0.00 0.00 87 1009.7
20260505075510 13 236 1.6 8.0 0.00 0.00 0.00 87 1009.7
20260505075015 13 229 3.2 9.7 0.00 0.00 0.00 88 1009.6
20260505074532 13 213 3.2 9.7 0.00 0.00 0.00 88 1009.6
20260505074011 13 254 3.2 11.3 0.00 0.00 0.00 87 1009.7
20260505073512 12 186 4.8 11.3 0.00 0.00 0.00 87 1009.6
20260505073040 12 192 4.8 11.3 0.00 0.00 0.00 85 1009.6
20260505072511 13 191 4.8 11.3 0.00 0.00 0.00 84 1009.6
20260505072010 13 173 3.2 9.7 0.00 0.00 0.00 83 1009.6
20260505071532 14 181 3.2 12.9 0.00 0.00 0.00 85 1009.5
20260505071015 14 229 3.2 12.9 0.00 0.00 0.00 86 1009.5
20260505070509 13 238 4.8 11.3 0.00 0.00 0.00 86 1009.6
20260505070039 13 178 3.2 12.9 0.00 0.00 0.00 86 1009.6
20260505065513 13 257 3.2 12.9 0.00 0.00 0.00 87 1009.4
20260505065012 13 223 3.2 12.9 0.00 0.00 0.00 87 1009.4
20260505064533 13 201 3.2 14.5 0.00 0.00 0.00 87 1009.4
20260505064008 13 214 4.8 14.5 0.00 0.00 0.00 88 1009.6
20260505063511 13 235 3.2 12.9 0.00 0.00 0.00 89 1009.6
20260505063031 13 273 4.8 14.5 0.00 0.00 0.00 89 1009.5
20260505062512 13 221 4.8 14.5 0.00 0.00 0.00 89 1009.6
20260505062015 13 220 4.8 12.9 0.00 0.00 0.00 89 1009.5
20260505061538 13 234 4.8 16.1 0.00 0.00 0.00 89 1009.6
20260505061011 13 250 6.4 19.3 0.00 0.00 0.00 89 1009.6
20260505060517 13 218 6.4 19.3 0.00 0.00 0.00 89 1009.6
20260505060032 13 216 8.0 19.3 0.00 0.00 0.00 88 1009.7
20260505055511 13 201 8.0 19.3 0.00 0.00 0.00 89 1009.9
20260505055015 12 232 8.0 17.7 0.00 0.00 0.00 90 1009.8
20260505054536 12 205 6.4 17.7 0.00 0.00 0.00 89 1009.8
20260505054016 12 229 4.8 12.9 0.00 0.00 0.00 89 1009.7
20260505053516 12 212 4.8 12.9 0.00 0.00 0.00 90 1009.7
20260505053031 12 180 4.8 14.5 0.00 0.00 0.00 90 1009.7
20260505052509 11 175 6.4 14.5 0.00 0.00 0.00 89 1009.7
20260505052016 11 182 8.0 12.9 0.00 0.00 0.00 89 1009.9
20260505051532 11 205 6.4 11.3 0.00 0.00 0.00 89 1009.9
20260505051011 11 136 4.8 12.9 0.00 0.00 0.00 89 1009.9
20260505050509 11 185 6.4 14.5 0.00 0.00 0.00 89 1010.0
20260505041548 13 192 8.0 16.1 0.00 0.00 0.00 84 1010.2
20260505041008 14 202 6.4 16.1 0.00 0.00 0.00 84 1010.1
20260505040508 14 178 6.4 16.1 0.00 0.00 0.00 84 1010.1
20260505040039 14 223 8.0 16.1 0.00 0.00 0.00 84 1010.1
20260505035511 13 186 6.4 14.5 0.00 0.00 0.00 84 1010.2
20260505035010 13 263 4.8 16.1 0.00 0.00 0.00 85 1010.2
20260505034532 13 196 6.4 16.1 0.00 0.00 0.00 84 1010.2
20260505034010 13 162 6.4 11.3 0.00 0.00 0.00 82 1010.3
20260505033514 13 186 6.4 11.3 0.00 0.00 0.00 81 1010.2
20260505033030 14 161 6.4 12.9 0.00 0.00 0.00 81 1010.2
20260505032510 14 198 4.8 14.5 0.00 0.00 0.00 82 1010.2
20260505032014 13 168 4.8 14.5 0.00 0.00 0.00 81 1010.3
20260505031539 13 197 4.8 12.9 0.00 0.00 0.00 82 1010.5
20260505031010 13 236 4.8 9.7 0.00 0.00 0.00 81 1010.4
20260505030510 13 188 4.8 9.7 0.00 0.00 0.00 80 1010.4
20260505030032 13 192 4.8 12.9 0.00 0.00 0.00 79 1010.5
20260505025511 13 186 4.8 12.9 0.00 0.00 0.00 78 1010.4
20260505025014 13 224 4.8 11.3 0.00 0.00 0.00 78 1010.5
20260505024533 13 214 4.8 9.7 0.00 0.00 0.00 78 1010.6
20260505024010 14 182 3.2 8.0 0.00 0.00 0.00 77 1010.4
20260505023510 14 197 3.2 8.0 0.00 0.00 0.00 77 1010.4
20260505023031 14 191 3.2 8.0 0.00 0.00 0.00 77 1010.6
20260505022510 14 198 3.2 11.3 0.00 0.00 0.00 76 1010.7
20260505022014 14 163 3.2 11.3 0.00 0.00 0.00 76 1010.7
20260505021534 15 194 3.2 14.5 0.00 0.00 0.00 75 1010.7
20260505021012 15 171 3.2 14.5 0.00 0.00 0.00 73 1010.8
20260505020513 15 203 3.2 14.5 0.00 0.00 0.00 72 1010.8
20260505020028 15 255 4.8 14.5 0.00 0.00 0.00 72 1010.7
20260505015509 15 290 4.8 12.9 0.00 0.00 0.00 73 1010.7
20260505015014 15 202 4.8 14.5 0.00 0.00 0.00 73 1010.6
20260505014539 15 175 4.8 14.5 0.00 0.00 0.00 73 1010.7
20260505014011 15 224 4.8 14.5 0.00 0.00 0.00 73 1010.7
20260505013514 15 223 4.8 14.5 0.00 0.00 0.00 73 1010.7
20260505013029 15 170 4.8 14.5 0.00 0.00 0.00 74 1010.6
20260505012512 15 192 4.8 16.1 0.00 0.00 0.00 74 1010.7
20260505012011 15 200 4.8 16.1 0.00 0.00 0.00 76 1010.5
20260505011532 15 170 4.8 14.5 0.00 0.00 0.00 77 1010.4
20260505011010 14 174 4.8 12.9 0.00 0.00 0.00 78 1010.5
20260505010510 14 192 3.2 12.9 0.00 0.00 0.00 78 1010.3
20260505010029 14 197 4.8 12.9 0.00 0.00 0.00 78 1010.4
20260505005511 14 177 4.8 12.9 0.00 0.00 0.00 78 1010.3
20260505005011 14 182 4.8 14.5 0.00 0.00 0.00 77 1010.3
20260505004536 15 170 4.8 14.5 0.00 0.00 0.00 77 1010.2
20260505004008 15 205 4.8 19.3 0.00 0.00 0.00 77 1010.2
20260505003513 15 232 4.8 19.3 0.00 0.00 0.00 78 1010.2
20260505003032 14 234 4.8 17.7 0.00 0.00 0.00 78 1010.1
20260505002510 14 187 6.4 17.7 0.00 0.00 0.00 79 1010.0
20260505002009 14 232 4.8 17.7 0.00 0.00 0.00 79 1009.9
20260505001532 15 178 6.4 17.7 0.00 0.00 0.00 78 1009.9
20260505001009 15 254 6.4 17.7 0.00 0.00 0.00 77 1009.9
20260505000517 15 219 6.4 17.7 0.00 0.00 0.00 77 1009.5
20260505000038 15 199 8.0 19.3 0.00 0.00 0.00 76 1009.5
20260504235510 15 253 6.4 19.3 0.00 0.00 0.00 76 1009.5
20260504235013 15 246 8.0 19.3 0.00 0.00 0.00 76 1009.5
20260504234534 15 199 8.0 17.7 0.00 0.00 0.00 74 1009.5
20260504234010 15 191 9.7 17.7 0.00 0.00 0.00 74 1009.4
20260504233511 15 193 8.0 17.7 0.00 0.00 0.00 73 1009.4
20260504233038 15 263 8.0 16.1 0.00 0.00 0.00 73 1009.4
20260504232513 16 194 6.4 22.5 0.00 0.00 0.00 72 1009.3
20260504232015 16 182 8.0 24.1 0.00 0.00 0.00 70 1009.2
20260504231528 16 209 9.7 24.1 0.00 0.00 0.00 68 1009.2
20260504231012 16 155 8.0 19.3 0.00 0.00 0.00 68 1009.3
20260504230510 16 181 8.0 24.1 0.00 0.00 0.00 68 1009.1
20260504230035 17 225 8.0 24.1 0.00 0.00 0.00 67 1009.1
20260504225509 17 180 9.7 24.1 0.00 0.00 0.00 65 1009.0
20260504225011 17 270 9.7 24.1 0.00 0.00 0.00 64 1009.0
20260504224531 17 197 9.7 24.1 0.00 0.00 0.00 63 1009.1
20260504224007 17 208 9.7 24.1 0.00 0.00 0.00 63 1009.2
20260504223511 17 194 8.0 24.1 0.00 0.00 0.00 63 1009.0
20260504223044 17 184 11.3 32.2 0.00 0.00 0.00 63 1009.0
20260504222509 17 248 11.3 32.2 0.00 0.00 0.00 65 1009.1
20260504222015 17 234 9.7 24.1 0.00 0.00 0.00 66 1009.1
20260504221528 17 234 9.7 27.4 0.00 0.00 0.00 66 1009.1
20260504221010 17 169 12.9 27.4 0.00 0.00 0.00 65 1009.3
20260504220514 17 192 12.9 25.7 0.00 0.00 0.00 62 1009.2
20260504220031 17 202 12.9 27.4 0.00 0.00 0.00 62 1009.1
20260504215511 17 186 11.3 27.4 0.00 0.00 0.00 63 1009.3
20260504215015 16 257 11.3 25.7 0.00 0.00 0.00 66 1009.2
20260504214531 15 266 11.3 29.0 0.00 0.00 0.00 73 1009.3
20260504214007 15 188 12.9 29.0 0.00 0.00 0.00 75 1009.4
20260504213516 15 207 14.5 30.6 0.00 0.00 0.00 73 1009.3
20260504213042 15 228 14.5 30.6 0.00 0.00 0.00 73 1009.5
20260504212515 15 186 14.5 30.6 0.00 0.00 0.00 73 1009.2
20260504212014 15 198 11.3 30.6 0.00 0.00 0.00 72 1009.3
20260504211534 15 202 12.9 32.2 0.00 0.00 0.00 73 1009.3
20260504211010 15 159 14.5 32.2 0.00 0.00 0.00 74 1009.3
20260504210511 15 208 16.1 27.4 0.00 0.00 0.00 73 1009.3
20260504210030 14 161 14.5 25.7 0.00 0.00 0.00 76 1009.3
20260504205510 13 201 14.5 27.4 0.00 0.00 0.00 80 1009.3
20260504205013 13 213 16.1 27.4 0.00 0.00 0.00 80 1009.3
20260504204541 13 192 14.5 33.8 0.00 0.00 0.00 80 1009.2
20260504204014 13 180 16.1 33.8 0.00 0.00 0.00 80 1009.3
20260504203514 13 190 16.1 32.2 0.00 0.00 0.00 79 1009.2
20260504203033 13 191 16.1 35.4 0.00 0.00 0.00 79 1009.2
20260504202510 13 205 16.1 35.4 0.00 0.00 0.00 79 1009.3
20260504202014 13 194 16.1 30.6 0.00 0.00 0.00 78 1009.2
20260504201530 13 212 16.1 38.6 0.00 0.00 0.00 78 1009.2
20260504201010 13 173 14.5 38.6 0.00 0.00 0.00 78 1009.5
20260504200511 13 178 19.3 35.4 0.00 0.00 0.00 78 1009.3
20260504200028 13 107 16.1 35.4 0.00 0.00 0.00 77 1009.3
20260504195511 14 211 16.1 30.6 0.00 0.00 0.00 76 1009.3
20260504195016 14 190 16.1 30.6 0.00 0.00 0.00 77 1009.4
20260504194528 14 182 14.5 38.6 0.00 0.00 0.00 77 1009.4
20260504194010 14 188 19.3 38.6 0.00 0.00 0.00 75 1009.4
20260504193511 14 179 16.1 30.6 0.00 0.00 0.00 75 1009.5
20260504193031 14 188 16.1 30.6 0.00 0.00 0.00 75 1009.5
20260504192510 14 216 14.5 30.6 0.00 0.00 0.00 76 1009.6
20260504192013 14 162 12.9 33.8 0.00 0.00 0.00 75 1009.6
20260504191529 14 175 16.1 35.4 0.00 0.00 0.00 75 1009.9
20260504191009 14 180 17.7 35.4 0.00 0.00 0.00 75 1009.8
20260504190510 14 175 16.1 29.0 0.00 0.00 0.00 75 1009.8
20260504190030 14 145 14.5 30.6 0.00 0.00 0.00 75 1010.0
20260504185508 14 224 14.5 32.2 0.00 0.00 0.00 76 1010.1
20260504185011 14 184 14.5 33.8 0.00 0.00 0.00 75 1010.1
20260504184530 14 203 16.1 33.8 0.00 0.00 0.00 74 1010.1
20260504184011 15 186 16.1 27.4 0.00 0.00 0.00 73 1010.1
20260504183517 15 195 12.9 29.0 0.00 0.00 0.00 75 1010.1
20260504183030 14 169 16.1 29.0 0.00 0.00 0.00 75 1010.3
20260504182508 14 187 16.1 32.2 0.00 0.00 0.00 75 1010.5
20260504182015 14 182 17.7 32.2 0.00 0.00 0.00 76 1010.3
20260504181533 15 188 16.1 30.6 0.00 0.00 0.00 74 1010.5
20260504181013 15 136 9.7 30.6 0.00 0.00 0.00 75 1010.4
20260504180514 15 177 12.9 27.4 0.00 0.00 0.00 75 1010.6
20260504180030 15 175 12.9 29.0 0.00 0.00 0.00 75 1010.7
20260504175509 15 155 12.9 32.2 0.00 0.00 0.00 75 1010.7
20260504175011 15 192 14.5 32.2 0.00 0.00 0.00 74 1010.8
20260504174530 15 187 11.3 25.7 0.00 0.00 0.00 73 1010.8
20260504174010 15 145 14.5 29.0 0.00 0.00 0.00 73 1010.9
20260504173512 15 161 12.9 29.0 0.00 0.00 0.00 73 1010.9
20260504173028 15 164 12.9 27.4 0.00 0.00 0.00 73 1010.8
20260504172512 15 160 16.1 29.0 0.00 0.00 0.00 71 1010.9
20260504172017 16 182 14.5 29.0 0.00 0.00 0.00 69 1010.9
20260504171528 15 180 14.5 25.7 0.00 0.00 0.00 72 1011.1
20260504171013 15 156 14.5 24.1 0.00 0.00 0.00 72 1011.0
20260504170513 15 194 11.3 24.1 0.00 0.00 0.00 72 1011.2
20260504151013 15 262 6.4 24.1 0.00 0.00 0.00 69 1012.5
20260504150513 16 175 11.3 24.1 0.00 0.00 0.00 65 1012.5
20260504141009 16 280 11.3 25.7 0.00 0.00 0.00 45 1013.0
20260504140508 16 265 12.9 25.7 0.00 0.00 0.00 47 1012.8
20260504130512 15 241 12.9 24.1 0.00 0.00 0.00 54 1013.4
20260504110510 10 317 12.9 22.5 0.00 0.00 0.00 73 1014.1
20260504100512 10 263 11.3 27.4 0.00 0.00 0.00 69 1013.9